Weather History for KMIB - November, 2012

Change the Weather History Date:

Wednesday, November 21, 2012

  Actual Average Record
Temperature  
Mean Temperature 37 °F -  
Max Temperature 44 °F 30 °F 57 °F (2006)
Min Temperature 30 °F 15 °F -11 °F (2013)
Degree Days  
Heating Degree Days 28    
Moisture  
Dew Point 32 °F    
Average Humidity 94    
Maximum Humidity 100    
Minimum Humidity 74    
Precipitation  
Precipitation 0.00 in - - ()
Sea Level Pressure  
Sea Level Pressure 29.72 in    
Wind  
Wind Speed 9 mph (NNW)    
Max Wind Speed 24 mph    
Max Gust Speed -    
Visibility 6 miles    
Events      
Averages and records for this station are not official NWS values.
T = Trace of Precipitation, MM = Missing Value Source: NWS Daily Summary

Daily Weather History Graph

Daily Weather History Graph

Search for Another Location

Airport or City:

Trip Planner

Search our weather history database for the weather conditions in past years. The results will help you decide how hot, cold, wet, or windy it might be!

Date:

Astronomy

Nov. 21, 2012 Rise Set
Actual Time 8:02 AM CST 4:59 PM CST
Civil Twilight 7:27 AM CST 5:34 PM CST
Nautical Twilight 6:49 AM CST 6:13 PM CST
Astronomical Twilight 6:12 AM CST 6:50 PM CST
Moon 1:43 PM CST (11/21) 12:54 AM CST (11/21)
Length of Visible Light 10h 06m
Length of Day
8h 56m
First Quarter, 62% of the Moon is Illuminated
Nov 21
First Quarter
Nov 28
Full
Dec 6
Last Quarter
Dec 13
New
Dec 19
First Quarter

Hourly Weather History & Observations

Time (CST) Temp. Windchill Dew Point Humidity Pressure Visibility Wind Dir Wind Speed Gust Speed Precip Events Conditions
12:55 AM 37.8 °F 34.2 °F 33.1 °F 83% 29.87 in 10.0 mi SSW 4.6 mph - N/A   Clear
1:55 AM 35.6 °F 30.7 °F 32.5 °F 89% 29.88 in 10.0 mi NNE 5.8 mph - N/A   Clear
2:55 AM 35.8 °F 33.0 °F 32.5 °F 88% 29.86 in 10.0 mi NE 3.5 mph - N/A   Mostly Cloudy
3:55 AM 34.2 °F - 32.2 °F 92% 29.86 in 10.0 mi Calm Calm - N/A   Overcast
4:55 AM 32.9 °F 29.8 °F 31.5 °F 94% 29.85 in 10.0 mi South 3.5 mph - N/A   Scattered Clouds
5:55 AM 31.5 °F - 30.6 °F 96% 29.86 in 10.0 mi Calm Calm - N/A   Clear
6:55 AM 31.1 °F - 30.4 °F 97% 29.84 in 10.0 mi Calm Calm - N/A   Partly Cloudy
7:55 AM 30.6 °F - 29.8 °F 97% 29.82 in 10.0 mi Calm Calm - N/A   Mostly Cloudy
8:55 AM 35.4 °F 29.0 °F 32.5 °F 89% 29.82 in 10.0 mi East 8.1 mph - N/A   Mostly Cloudy
9:55 AM 36.0 °F 27.1 °F 33.1 °F 89% 29.77 in 10.0 mi ESE 13.8 mph - N/A   Mostly Cloudy
10:55 AM 39.2 °F 32.0 °F 33.8 °F 81% 29.75 in 10.0 mi SE 11.5 mph - N/A   Clear
11:55 AM 41.2 °F 37.3 °F 34.9 °F 78% 29.73 in 10.0 mi SE 5.8 mph - N/A   Scattered Clouds
12:55 PM 40.1 °F - 35.1 °F 82% 29.70 in 10.0 mi Calm Calm - N/A   Clear
1:55 PM 42.4 °F 37.0 °F 36.3 °F 79% 29.65 in 10.0 mi SE 9.2 mph - N/A   Clear
2:55 PM 44.6 °F 42.2 °F 36.9 °F 74% 29.63 in 10.0 mi East 4.6 mph - N/A   Clear
3:55 PM 43.9 °F 41.3 °F 36.5 °F 75% 29.62 in 10.0 mi North 4.6 mph - N/A   Clear
4:55 PM 39.0 °F 34.8 °F 34.3 °F 83% 29.63 in 10.0 mi North 5.8 mph - N/A   Clear
5:55 PM 36.0 °F 28.0 °F 33.3 °F 90% 29.63 in 10.0 mi NW 11.5 mph - N/A   Partly Cloudy
6:55 PM 34.3 °F 28.4 °F 32.5 °F 93% 29.65 in 10.0 mi NNW 6.9 mph - N/A   Clear
7:55 PM 33.4 °F 29.1 °F 32.9 °F 98% 29.63 in 10.0 mi NNW 4.6 mph - 0.00 in   Scattered Clouds
8:55 PM 32.7 °F 25.7 °F 32.2 °F 98% 29.65 in 10.0 mi NW 8.1 mph - N/A   Partly Cloudy
9:40 PM 32.0 °F 23.0 °F 32.0 °F 100% 29.68 in 10.0 mi NNW 11.5 mph - N/A   Partly Cloudy
9:49 PM 32.0 °F 23.0 °F 32.0 °F 100% 29.68 in 10.0 mi NNW 11.5 mph - N/A   Mostly Cloudy
9:52 PM 32.0 °F 22.1 °F 32.0 °F 100% 29.68 in 10.0 mi NNW 13.8 mph - N/A   Mostly Cloudy
9:55 PM 31.8 °F 21.4 °F 31.5 °F 99% 29.68 in 7.0 mi NW 15.0 mph - N/A   Mostly Cloudy
10:00 PM 32.0 °F 20.5 °F 32.0 °F 100% 29.68 in 2.5 mi NW 18.4 mph - N/A   Mostly Cloudy
10:02 PM 32.0 °F 20.5 °F 32.0 °F 100% 29.68 in 1.8 mi NW 18.4 mph - N/A   Mostly Cloudy
10:03 PM 32.0 °F 20.5 °F 32.0 °F 100% 29.68 in 1.5 mi NNW 18.4 mph - N/A   Mostly Cloudy
10:04 PM 32.0 °F 20.5 °F 32.0 °F 100% 29.68 in 1.2 mi NW 18.4 mph - N/A   Overcast
10:05 PM 32.0 °F 20.5 °F 32.0 °F 100% 29.68 in 1.2 mi NNW 18.4 mph - N/A   Overcast
10:07 PM 32.0 °F 19.5 °F 32.0 °F 100% 29.68 in 1.0 mi NNW 21.9 mph - N/A   Mist
10:08 PM 32.0 °F 18.9 °F 30.2 °F 93% 29.68 in 1.0 mi NNW 24.2 mph - N/A   Light Freezing Drizzle
10:09 PM 32.0 °F 18.9 °F 30.2 °F 93% 29.68 in 1.0 mi NNW 24.2 mph - N/A   Light Freezing Drizzle
10:10 PM 32.0 °F 18.9 °F 30.2 °F 93% 29.68 in 1.0 mi NNW 24.2 mph - N/A   Light Freezing Drizzle
10:12 PM 32.0 °F 19.2 °F 30.2 °F 93% 29.68 in 0.8 mi NNW 23.0 mph - N/A   Light Freezing Drizzle
10:21 PM 32.0 °F 20.1 °F 30.2 °F 93% 29.69 in 1.0 mi NNW 19.6 mph - N/A   Light Freezing Drizzle
10:26 PM 32.0 °F 20.5 °F 32.0 °F 100% 29.70 in 0.8 mi NNW 18.4 mph - N/A   Light Freezing Drizzle
10:31 PM 32.0 °F 21.2 °F 32.0 °F 100% 29.70 in 1.0 mi NNW 16.1 mph - N/A   Light Freezing Drizzle
10:38 PM 32.0 °F 22.1 °F 32.0 °F 100% 29.71 in 1.0 mi NNW 13.8 mph - N/A   Light Freezing Drizzle
10:42 PM 32.0 °F 22.1 °F 32.0 °F 100% 29.71 in 1.2 mi NNW 13.8 mph - N/A   Light Freezing Drizzle
10:44 PM 32.0 °F 22.5 °F 32.0 °F 100% 29.71 in 1.2 mi NNW 12.7 mph - N/A   Light Freezing Drizzle
10:49 PM 32.0 °F 21.2 °F 32.0 °F 100% 29.71 in 1.5 mi NNW 16.1 mph - N/A   Light Freezing Drizzle
10:55 PM 31.8 °F 20.2 °F 31.6 °F 99% 29.71 in 1.8 mi NNW 18.4 mph - 0.00 in   Light Freezing Drizzle
11:09 PM 32.0 °F 20.1 °F 32.0 °F 100% 29.70 in 1.2 mi NNW 19.6 mph - N/A   Light Freezing Drizzle
11:19 PM 32.0 °F 19.5 °F 32.0 °F 100% 29.72 in 1.5 mi NNW 21.9 mph - N/A   Light Freezing Drizzle
11:27 PM 32.0 °F 20.5 °F 32.0 °F 100% 29.72 in 2.0 mi NNW 18.4 mph - N/A   Light Freezing Drizzle
11:34 PM 32.0 °F 21.2 °F 32.0 °F 100% 29.72 in 2.5 mi NNW 16.1 mph - N/A   Light Freezing Drizzle
11:38 PM 32.0 °F 20.8 °F 32.0 °F 100% 29.71 in 3.0 mi NNW 17.3 mph - N/A   Light Freezing Drizzle
11:51 PM 32.0 °F 21.2 °F 32.0 °F 100% 29.69 in 4.0 mi NNW 16.1 mph - N/A   Overcast
11:55 PM 31.6 °F 20.7 °F 31.3 °F 99% 29.68 in 4.0 mi NNW 16.1 mph - 0.00 in   Overcast